TimeHST,TemperatureF,Dew PointF,Humidity,Sea Level PressureIn,VisibilityMPH,Wind Direction,Wind SpeedMPH,Gust SpeedMPH,PrecipitationIn,Events,Conditions,WindDirDegrees,DateUTC
12:01 AM,39.2,32.0,75,30.05,10.0,West,15.0,21.9,0.00,,Overcast,270,2012-11-28 10:01:00
12:08 AM,37.9,32.0,79,30.34,10.0,West,17.3,24.2,0.00,,Overcast,260,2012-11-28 10:08:00
12:15 AM,39.2,32.0,75,30.05,10.0,West,15.0,-,N/A,,Overcast,260,2012-11-28 10:15:00
12:41 AM,39.2,33.8,81,30.03,10.0,WSW,20.7,32.2,N/A,,Mostly Cloudy,250,2012-11-28 10:41:00
1:01 AM,39.9,33.1,77,30.31,10.0,West,20.7,31.1,N/A,,Partly Cloudy,260,2012-11-28 11:01:00
1:47 AM,39.2,33.8,81,30.03,9.0,West,23.0,33.4,N/A,,Partly Cloudy,260,2012-11-28 11:47:00
2:01 AM,39.9,33.1,77,30.32,10.0,WSW,18.4,32.2,N/A,,Partly Cloudy,250,2012-11-28 12:01:00
2:15 AM,39.2,33.8,81,30.04,10.0,West,17.3,33.4,N/A,,Mostly Cloudy,280,2012-11-28 12:15:00
2:47 AM,39.2,33.8,81,30.04,9.0,West,20.7,35.7,N/A,,Mostly Cloudy,260,2012-11-28 12:47:00
3:01 AM,39.0,33.1,79,30.33,10.0,WNW,15.0,33.4,N/A,,Mostly Cloudy,290,2012-11-28 13:01:00
3:14 AM,39.2,33.8,81,30.05,10.0,West,16.1,28.8,N/A,,Overcast,270,2012-11-28 13:14:00
3:21 AM,39.2,33.8,81,30.05,10.0,West,19.6,28.8,N/A,,Overcast,270,2012-11-28 13:21:00
3:32 AM,37.4,33.8,87,30.04,10.0,West,28.8,38.0,N/A,,Overcast,260,2012-11-28 13:32:00
4:01 AM,39.0,32.0,76,30.34,10.0,West,20.7,34.5,N/A,,Partly Cloudy,280,2012-11-28 14:01:00
5:01 AM,37.9,30.0,73,30.34,10.0,West,13.8,21.9,N/A,,Clear,280,2012-11-28 15:01:00
6:01 AM,37.9,30.0,73,30.33,10.0,West,16.1,32.2,N/A,,Clear,270,2012-11-28 16:01:00
7:01 AM,37.9,30.0,73,30.34,10.0,West,18.4,28.8,N/A,,Clear,270,2012-11-28 17:01:00
9:01 AM,39.0,30.9,73,30.34,10.0,West,18.4,33.4,N/A,,Partly Cloudy,270,2012-11-28 19:01:00
10:01 AM,39.9,30.0,68,30.32,10.0,West,21.9,29.9,N/A,,Clear,270,2012-11-28 20:01:00
11:01 AM,39.9,28.9,65,30.30,10.0,West,23.0,42.6,N/A,,Partly Cloudy,280,2012-11-28 21:01:00
12:01 PM,39.0,28.9,67,30.29,10.0,West,23.0,35.7,N/A,,Clear,270,2012-11-28 22:01:00
1:01 PM,39.0,30.0,70,30.27,10.0,WSW,20.7,29.9,N/A,,Clear,250,2012-11-28 23:01:00
3:01 PM,36.0,28.9,76,30.27,10.0,West,15.0,42.6,0.00,,Clear,270,2012-11-29 01:01:00
3:37 PM,35.6,28.4,75,29.98,10.0,West,15.0,36.8,0.00,Rain,Light Rain,270,2012-11-29 01:37:00
4:01 PM,36.0,28.9,76,30.27,10.0,WNW,20.7,34.5,0.00,,Overcast,290,2012-11-29 02:01:00
5:01 PM,36.0,28.0,73,30.27,10.0,West,19.6,50.6,0.00,,Mostly Cloudy,270,2012-11-29 03:01:00
5:33 PM,35.6,28.4,75,29.99,10.0,West,20.7,44.9,0.00,,Scattered Clouds,260,2012-11-29 03:33:00
5:59 PM,35.6,28.4,75,29.99,10.0,West,21.9,43.7,0.00,,Mostly Cloudy,260,2012-11-29 03:59:00
6:01 PM,36.0,28.0,73,30.29,10.0,West,21.9,43.7,0.00,,Mostly Cloudy,260,2012-11-29 04:01:00
6:39 PM,35.6,26.6,70,30.00,10.0,WNW,24.2,35.7,N/A,,Scattered Clouds,290,2012-11-29 04:39:00
7:01 PM,36.0,26.1,67,30.29,10.0,West,20.7,34.5,N/A,,Clear,280,2012-11-29 05:01:00
9:01 PM,35.1,27.0,72,30.27,10.0,West,19.6,32.2,N/A,,Clear,280,2012-11-29 07:01:00
10:01 PM,35.1,27.0,72,30.26,10.0,WNW,18.4,32.2,N/A,,Partly Cloudy,290,2012-11-29 08:01:00
11:01 PM,35.1,28.0,76,30.25,10.0,WNW,20.7,33.4,N/A,,Scattered Clouds,290,2012-11-29 09:01:00
11:29 PM,33.8,26.6,75,29.95,10.0,West,23.0,36.8,N/A,,Mostly Cloudy,280,2012-11-29 09:29:00